Location: Boulder, CO
(40.0083°N, 105.2472°W)
Time: 21:04:41
(UTC-06:00)

SORCE - Visible Passes

Search period start: 27 August 2014 00:00
Search period end: 06 September 2014 00:00
Orbit: 592 x 628 km, 40.0° (Epoch: 25 August)

Date Brightness Start Highest point End Pass type
(mag) Time Alt. Az. Time Alt. Az. Time Alt. Az.
27 Aug 7.1 03:55:03 35° ESE 03:55:03 35° ESE 03:57:47 10° ESE visible
27 Aug 7.2 05:31:57 14° W 05:34:55 24° SSW 05:38:36 10° SSE visible
28 Aug 7.4 04:08:44 28° SE 04:08:44 28° SE 04:11:07 10° SE visible
28 Aug 7.8 05:45:40 10° WSW 05:48:09 15° SW 05:50:39 10° S visible
29 Aug 7.9 04:22:41 19° SSE 04:22:41 19° SSE 04:24:10 10° SE visible
30 Aug 8.6 21:55:11 10° SW 21:55:21 11° SW 21:55:21 11° SW visible
31 Aug 7.7 20:28:29 10° S 20:31:15 16° SE 20:32:13 15° SE visible
31 Aug 8.3 22:08:17 10° SW 22:09:08 15° SW 22:09:08 15° SW visible
01 Sep 7.1 20:40:41 10° SSW 20:44:30 26° SSE 20:45:47 23° ESE visible
01 Sep 8.3 22:21:37 10° WSW 22:22:41 17° WSW 22:22:41 17° WSW visible
02 Sep 6.5 20:53:33 10° SW 20:57:49 41° SSE 20:59:07 33° ESE visible
02 Sep 8.5 22:35:07 10° W 22:36:00 16° W 22:36:00 16° W visible
03 Sep 6.1 21:06:45 10° WSW 21:11:14 59° SSE 21:12:16 46° ESE visible
03 Sep 8.8 22:48:40 10° W 22:49:08 13° W 22:49:08 13° W visible
04 Sep 5.9 21:20:09 10° WSW 21:24:43 77° SSE 21:25:15 66° ESE visible
05 Sep 6.4 19:51:57 10° SW 19:56:18 47° SSE 20:00:42 10° E visible
05 Sep 6.0 21:33:40 10° W 21:38:08 85° WSW 21:38:08 85° WSW visible
